Location: Hall+in+Tirol
(47.2830°N, 11.5170°E)
Time: 04:22:09
(UTC+02:00)

Gurwin Techsat 1B - Visible Passes

Search period start: 27 May 2017 00:00
Search period end: 06 June 2017 00:00
Orbit: 811 x 815 km, 98.6° (Epoch: 26 May)

Date Brightness Start Highest point End Pass type
(mag) Time Alt. Az. Time Alt. Az. Time Alt. Az.
27 May 10.9 01:50:42 10° NE 01:53:30 14° E 01:56:16 10° ESE visible
27 May 8.6 03:28:48 10° NNE 03:34:09 86° WNW 03:38:04 19° SSW visible
28 May 8.9 03:06:02 10° NNE 03:11:19 62° E 03:15:01 20° S visible
28 May 10.1 04:46:48 10° N 04:50:50 22° WNW 04:54:51 10° WSW visible
29 May 9.6 02:43:24 10° NNE 02:48:25 40° E 02:51:58 18° SSE visible
29 May 9.6 04:23:34 10° N 04:28:15 32° WNW 04:32:56 10° SW visible
30 May 10.2 02:20:59 10° NE 02:25:25 26° E 02:28:55 14° SE visible
30 May 9.1 04:00:29 10° N 04:05:36 48° WNW 04:10:07 13° SW visible
31 May 10.7 01:58:56 10° NE 02:02:21 17° E 02:05:45 10° SE visible
31 May 8.7 03:37:33 10° N 03:42:52 74° WNW 03:47:04 17° SSW visible
01 Jun 11.1 01:38:17 10° ENE 01:39:12 10° E 01:40:07 10° E visible
01 Jun 8.7 03:14:43 10° NNE 03:20:04 74° ESE 03:24:00 19° S visible
02 Jun 9.3 02:52:02 10° NNE 02:57:12 47° E 03:00:57 18° SSE visible
02 Jun 9.8 04:32:26 10° N 04:36:55 28° WNW 04:41:22 10° WSW visible
03 Jun 10.0 02:29:32 10° NNE 02:34:14 31° E 02:37:53 15° SSE visible
03 Jun 9.3 04:09:18 10° N 04:14:17 41° WNW 04:19:05 11° SW visible
04 Jun 10.5 02:07:19 10° NE 02:11:12 20° E 02:14:48 11° SE visible
04 Jun 8.8 03:46:19 10° N 03:51:35 63° WNW 03:56:01 15° SSW visible
05 Jun 10.9 01:45:45 10° ENE 01:48:05 13° E 01:50:24 10° ESE visible
05 Jun 8.6 03:23:27 10° NNE 03:28:49 86° ESE 03:32:57 17° SSW visible
